Вернуться в каталог

BADR-5

ARABSAT 5B

АктивенСвязьGEO
NORAD 36592·PAYLOAD·🇦🇪 UAE🇸🇦 Saudi Arabia

Запущен Jun 3, 2010 с Baikonur Cosmodrome

Loading…

TLE

СвежийSource: Space-Track

Эпоха: Sep 14, 2026, 13:56 UTC

1 36592U 10025A   26257.58116771  .00000146  00000-0  00000-0 0  9992
2 36592   0.0563 117.3858 0007857  95.5239  20.3658  1.00274278 54110

Отслеживайте BADR-5 в реальном времени с AllMySat

Download on the App Store